RS-44
1 44909U 19096E 22055.45199538 .00000004 00000-0 -25472-4 0 9998
2 44909 82.5219 305.3695 0216555 223.7780 134.5977 12.79711984101051
Phoenix
1 45258U 98067RB 22055.54384293 .00050958 00000-0 43246-3 0 9995
2 45258 51.6341 139.2678 0003487 78.6757 281.4631 15.69123906114580
Quetzal 1
1 45598U 98067RL 22055.55846450 .01844357 33712-2 12456-2 0 9992
2 45598 51.6230 118.9139 0007946 14.9642 345.1608 16.16858779104183
BY70-2
1 45857U 20042B 22055.50844692 .00003772 00000-0 52654-3 0 9993
2 45857 97.9641 133.5471 0012245 121.2048 239.0371 14.78215777 88766
UPMSat 2
1 46276U 20061E 22055.49792512 .00002331 00000-0 12055-3 0 9992
2 46276 97.4044 128.9168 0001647 144.5033 215.6310 15.17220247 81747
AmicalSat
1 46287U 20061R 22055.44743004 .00002584 00000-0 15662-3 0 9998
2 46287 97.4594 127.9290 0001658 340.6610 19.4557 15.11432899 81392
SALSAT
1 46495U 20068K 22055.54173535 .00000807 00000-0 62978-4 0 9992
2 46495 97.7190 356.9388 0015296 303.6994 56.2772 15.03918456 77210
BY70-3
1 46839U 20079N 22055.60696476 .00012667 00000-0 34976-3 0 9990
2 46839 97.2121 129.5346 0007047 31.8103 103.1299 15.37174249 72881
SPOC
1 46921U 98067RR 22055.52384199 .00049267 00000-0 47373-3 0 9992
2 46921 51.6368 151.2494 0003189 337.3521 22.7333 15.66061143 74176
Bobcat-1
1 46922U 98067RS 22055.50526567 .00141305 00000-0 77954-3 0 9992
2 46922 51.6344 141.3847 0005851 350.9217 9.1677 15.78692848 74258
Neutron-1
1 46923U 98067RT 22055.55928542 .00049781 00000-0 48095-3 0 9996
2 46923 51.6373 151.4928 0003255 342.6301 17.4582 15.65937812 74202
CAPE 3
1 47309U 21002A 22055.54137399 .00004631 00000-0 20837-3 0 9990
2 47309 60.6846 68.5253 0022912 193.7447 166.3019 15.22538200 61242
AO-109
1 47311U 21002C 22055.44537766 .00004751 00000-0 20922-3 0 9992
2 47311 60.6856 66.9741 0020042 184.2738 175.8181 15.23280036 61236
MiTEE 1
1 47314U 21002F 22055.97559214 .00007791 00000-0 30792-3 0 9998
2 47314 60.6842 60.9354 0022012 172.6395 187.5021 15.26144665 61409
ExoCube 2
1 47319U 21002L 22055.74148995 .00004159 00000-0 18667-3 0 9990
2 47319 60.6855 66.6729 0020338 188.4225 171.6524 15.22892587 61235
UVSQ-SAT
1 47438U 21006AB 22055.66250898 .00003191 00000-0 17796-3 0 9990
2 47438 97.4539 117.0242 0011147 310.7462 49.2801 15.14238644 60209
YUSAT 1
1 47439U 21006AC 22055.85298150 .00003760 00000-0 20801-3 0 9998
2 47439 97.4544 117.2459 0010951 310.2394 49.7880 15.14414201 60239
SOMP 2b
1 47445U 21006AJ 22054.71604630 .00003678 00000-0 20587-3 0 9992
2 47445 97.4511 115.8493 0010908 318.8665 41.1744 15.14011329 60058
IDEASSat
1 47458U 21006AX 22055.74340832 .00002712 00000-0 15341-3 0 9991
2 47458 97.4601 117.2463 0009937 313.6700 46.3707 15.13869467 60204
RSP-01
1 47925U 98067SB 22055.77642298 .00053011 00000-0 54592-3 0 9994
2 47925 51.6382 158.9400 0002797 317.7497 42.3282 15.64305392 54068
TAUSAT-1
1 47926U 98067SC 22055.51338314 .00084216 00000-0 69640-3 0 9999
2 47926 51.6373 156.4033 0004047 321.3020 38.7687 15.69544182 54062
Tsuru
1 47927U 98067SD 22055.69027678 .00048658 00000-0 53638-3 0 9997
2 47927 51.6376 160.6088 0002477 310.9438 49.1342 15.62605675 54034
STARS-EC
1 47928U 98067SE 22055.73292714 .00112754 00000-0 85069-3 0 9990
2 47928 51.6363 155.6139 0007541 342.3156 17.7578 15.71592256 54082
Maya-2
1 47929U 98067SF 22055.75042577 .00047320 00000-0 52242-3 0 9996
2 47929 51.6377 160.2589 0002363 309.1254 50.9530 15.62579166 54000
OPUSAT-II
1 47930U 98067SG 22055.73674940 .00119059 00000-0 85301-3 0 9992
2 47930 51.6348 154.1448 0004667 333.5539 26.5221 15.72810138 54129
GuaraniSat-1
1 47931U 98067SH 22055.74349120 .00048748 00000-0 53579-3 0 9991
2 47931 51.6387 160.2249 0002445 308.1671 51.9103 15.62680952 54047
CubeSX-Sirius-HSE
1 47951U 21022V 22055.61778762 .00002833 00000-0 19523-3 0 9990
2 47951 97.5406 317.5187 0021798 168.0014 280.3389 15.06454755 51009
CubeSX-HSE
1 47952U 21022W 22055.60899047 .00003168 00000-0 21752-3 0 9999
2 47952 97.5409 317.5238 0021929 167.4970 280.9907 15.06500273 51009
KSU-Cubesat
1 47954U 21022Y 22055.37178443 .00002006 00000-0 13878-3 0 9995
2 47954 97.5420 317.3555 0021411 166.8538 193.3252 15.06640937 50699
GRBAlpha
1 47959U 21022AD 22055.74085920 .00003300 00000-0 22630-3 0 9992
2 47959 97.5414 317.6800 0021771 167.6629 278.3510 15.06515675 49848
Orbicraft-Zorkiy
1 47960U 21022AE 22055.85737421 .00002701 00000-0 18558-3 0 9994
2 47960 97.5444 317.8852 0021299 165.9726 281.2212 15.06609007 50551
STECCO
1 47962U 21022AG 22055.86424553 .00004641 00000-0 30447-3 0 9992
2 47962 97.5400 318.3231 0016766 160.2731 264.3353 15.08034370 49899
DO-111
1 47963U 21022AH 22055.47751024 .00008810 00000-0 54649-3 0 9998
2 47963 97.5423 318.4138 0018723 156.7586 203.4494 15.09811908 49885
MO-110
1 47964U 21022AJ 22055.72357036 .00003755 00000-0 24478-3 0 9992
2 47964 97.5415 318.3614 0019689 157.5982 202.6111 15.08346296 49885
FEES
1 48082U 21022AL 22055.47152488 .00005760 00000-0 37454-3 0 9996
2 48082 97.5421 317.9775 0015841 154.9298 205.2702 15.08277935 49545
RamSat
1 48850U 98067SL 22055.56355565 .00029655 00000-0 40494-3 0 9990
2 48850 51.6394 167.9841 0004709 353.0763 7.0164 15.57205977 39679
MO-112
1 48868U 98067SP 22055.75212479 .00111677 00000-0 92697-3 0 9994
2 48868 51.6354 160.9718 0006106 347.4703 12.6141 15.69319071 38562
TUBIN
1 48900U 21059X 22055.71277874 .00002665 00000-0 15487-3 0 9992
2 48900 97.5352 186.1343 0011565 128.3622 341.6993 15.12912288 36869
IT-SPINS
1 49017U 21013G 22055.44295056 .00005917 00000-0 25178-3 0 9995
2 49017 51.6033 219.5823 0008402 26.1680 333.9720 15.24350793 36531
LEDSAT
1 49069U 21073D 22055.46099356 .00001966 00000-0 13197-3 0 9993
2 49069 97.5363 130.6148 0026687 324.1391 35.8044 15.07715978 28800
CUTE
1 49263U 21088D 22055.51912474 .00002189 00000-0 17013-3 0 9995
2 49263 97.6049 125.7121 0022701 90.7181 269.6645 15.02132244 22464
Binar-1
1 49272U 98067SR 22055.76750548 .00031903 00000-0 45888-3 0 9992
2 49272 51.6389 170.0783 0004756 272.7253 87.3194 15.55760267 22059
Maya-3
1 49273U 98067SS 22055.58987498 .00043492 00000-0 58935-3 0 9992
2 49273 51.6387 170.3936 0004686 274.4973 85.5483 15.57222531 22039
Maya-4
1 49274U 98067ST 22055.78790664 .00041818 00000-0 56885-3 0 9994
2 49274 51.6387 169.4663 0004599 274.6449 85.4018 15.57137513 22060
CUAVA-1
1 49275U 98067SU 22055.80828880 .00041163 00000-0 56836-3 0 9999
2 49275 51.6409 169.4152 0004556 277.9591 167.7699 15.56743458 22010
TeikyoSat 4
1 49396U 21102B 22055.59201932 .00001017 00000-0 85383-4 0 9992
2 49396 97.5566 117.0833 0017536 274.8013 85.1208 15.00414560 16121
Z-Sat
1 49399U 21102E 22055.53613967 .00000286 00000-0 26228-4 0 9994
2 49399 97.5500 117.3645 0020879 254.8984 104.9931 15.02110754 16139
KOSEN 1
1 49402U 21102H 22055.93849318 .00000429 00000-0 36214-4 0 9999
2 49402 97.5449 117.8091 0021049 241.7628 118.1473 15.03042339 16206
HO-113
1 50466U 21131B 22055.48767234 .00000051 00000-0 31408-4 0 9990
2 50466 98.5904 132.7617 0005799 121.0322 239.1438 14.38444327 8677
